星链-33981 (STARLINK-33981)

导读

STARLINK-33981是美国太空探索技术公司星链星座的一员,于2025年5月10日发射升空。星链项目旨在构建全球卫星互联网星座,该卫星入轨后,将和其他星链卫星协同工作,为全球范围内用户提供低延迟、高速率的宽带互联网服务,进一步拓展星链星座的全球覆盖能力。

Basic Information
目录编号:
63888
目录名称:
STARLINK-33981
国际标识:
2025-094AA
轨道中心:
EARTH
卫星名称:
星链-33981
卫星全名:
星链-33981 (STARLINK-33981)
卫星状态:
在轨 (已飞行482 天)
发射日期:
2025-05-10 UTC
国别 :
美国 (US)
星等 :
--
Orbit Information
数据来源 国际轨道数据
星历时间: 2026-09-04T14:00:02+0800
7小时前
查看轨道信息
半长轴: 6867.617km
偏心率: 0.0003406
轨道倾角: 70.000°
近地点辐角 275.786°
升交点赤经 143.883°
平近点角 270.776°
近地点: 487.14km
远地点: 491.82km
周期: 94.399分钟
每日圈数: 15.254351
Detailed Information
固有亮度:
5
最大亮度:
2.5
卫星平台:
Starlink V1.0
覆盖范围:
全球
运营商:
太空探索技术公司
运营商所在国:
美国
制造商(研发单位):
太空探索技术公司
制造商所在国:
美国
使用方式:
暂无
Satellite Introduction
Starlink 计划是 SpaceX 推出的全球卫星互联网项目,通过发射低轨道卫星,为全球尤其是偏远地区提供高速、低延迟的互联网服务。自 2019 年起,Starlink 已部署数千颗卫星,旨在缩小全球数字鸿沟,推动互联网普及。该项目还为军事、航空等行业提供通信支持,带来广泛经济效益。
2D Orbit Map
3D Orbit Map
Orbit Altitude Analysis Chart
Orbit Inclination Analysis Chart
Orbit Comprehensive Analysis Chart
View Comprehensive Chart
Conjunction Data List
Event ID Objects TCA Miss Dist (km) Collision Risk Probability Collision Risk Index (CRI) Action
CDM_260906-112406-170706-388821
2026-09-06T
11:24:48+0000
0.094 km
近距离
1.221831E-3 极高风险 0.97
CDM_260905-013406-388806-740721
2026-09-05T
01:34:20+0000
0.319 km
远距离
4.34312E-4 高风险 0.88
CDM_260906-125806-170706-388821
2026-09-06T
12:58:37+0000
0.845 km
远距离
4.42435E-5 中风险 0.68
CDM_260905-181806-152506-388821
2026-09-05T
18:18:19+0000
1.242 km
极远距离
1.060957E-5 中风险 0.56
CDM_260906-165306-170706-388821
2026-09-06T
16:53:09+0000
1.409 km
极远距离
7.653172E-6 低风险 0.53
CDM_260905-044305-761706-388821
2026-09-05T
04:43:35+0000
1.178 km
极远距离
5.808647E-6 低风险 0.5
CDM_260906-120806-388806-584521
2026-09-06T
12:08:27+0000
1.549 km
极远距离
5.657493E-6 低风险 0.5
CDM_260905-000006-388806-740721
2026-09-05T
00:00:08+0000
2.031 km
极远距离
2.486264E-6 低风险 0.43
CDM_260906-073706-152506-388821
2026-09-06T
07:37:09+0000
2.162 km
极远距离
2.023333E-6 低风险 0.41
CDM_260905-030806-388806-740721
2026-09-05T
03:08:32+0000
2.368 km
极远距离
1.765952E-6 低风险 0.4